Time,TemperatureF,DewpointF,PressureIn,WindDirection,WindDirectionDegrees,WindSpeedMPH,WindSpeedGustMPH,Humidity,HourlyPrecipIn,Conditions,Clouds,dailyrainin,SoftwareType,DateUTC
2013-06-12 00:01:00,76.1,70.9,29.96,WSW,238,0.0,0.0,84,0.00,,,0.00,WeatherCatV1.13B119,2013-06-12 05:01:00,
2013-06-12 00:06:00,75.9,70.7,29.96,WSW,238,0.0,0.0,84,0.00,,,0.00,WeatherCatV1.13B119,2013-06-12 05:06:00,
2013-06-12 00:11:00,75.7,70.5,29.96,WSW,238,0.0,0.0,84,0.00,,,0.00,WeatherCatV1.13B119,2013-06-12 05:11:00,
2013-06-12 00:16:00,75.5,70.7,29.96,WSW,238,0.0,0.0,85,0.00,,,0.00,WeatherCatV1.13B119,2013-06-12 05:16:00,
2013-06-12 00:21:00,75.3,70.5,29.96,WSW,238,0.0,0.0,85,0.00,,,0.00,WeatherCatV1.13B119,2013-06-12 05:21:00,
2013-06-12 00:26:00,75.1,70.6,29.95,WSW,237,0.0,0.0,86,0.00,,,0.00,WeatherCatV1.13B119,2013-06-12 05:26:00,
2013-06-12 00:31:00,74.8,70.3,29.96,WSW,238,0.0,0.0,86,0.00,,,0.00,WeatherCatV1.13B119,2013-06-12 05:31:00,
2013-06-12 00:36:00,74.7,70.6,29.95,WSW,238,0.0,0.0,87,0.00,,,0.00,WeatherCatV1.13B119,2013-06-12 05:36:00,
2013-06-12 00:41:00,74.7,70.6,29.96,WSW,237,0.0,0.0,87,0.00,,,0.00,WeatherCatV1.13B119,2013-06-12 05:41:00,
2013-06-12 00:46:00,74.6,70.5,29.96,WSW,238,0.0,0.0,87,0.00,,,0.00,WeatherCatV1.13B119,2013-06-12 05:46:00,
2013-06-12 00:51:00,74.7,70.6,29.96,SSW,209,0.0,0.0,87,0.00,,,0.00,WeatherCatV1.13B119,2013-06-12 05:51:00,
2013-06-12 00:56:00,74.9,70.8,29.96,SW,229,0.0,0.0,87,0.00,,,0.00,WeatherCatV1.13B119,2013-06-12 05:56:00,
2013-06-12 01:01:00,75.1,70.6,29.96,SW,228,0.0,0.0,86,0.00,,,0.00,WeatherCatV1.13B119,2013-06-12 06:01:00,
2013-06-12 01:06:00,75.1,70.6,29.96,SW,219,0.0,0.0,86,0.00,,,0.00,WeatherCatV1.13B119,2013-06-12 06:06:00,
2013-06-12 01:11:00,75.0,70.5,29.96,SW,219,0.0,0.0,86,0.00,,,0.00,WeatherCatV1.13B119,2013-06-12 06:11:00,
2013-06-12 01:16:00,74.9,70.4,29.96,SW,219,0.0,0.0,86,0.00,,,0.00,WeatherCatV1.13B119,2013-06-12 06:16:00,
2013-06-12 01:21:00,74.8,70.3,29.96,SW,219,0.0,0.0,86,0.00,,,0.00,WeatherCatV1.13B119,2013-06-12 06:21:00,
2013-06-12 01:26:00,74.8,70.7,29.96,SW,215,0.0,0.0,87,0.00,,,0.00,WeatherCatV1.13B119,2013-06-12 06:26:00,
2013-06-12 01:31:00,74.8,70.7,29.96,SSE,157,0.0,0.0,87,0.00,,,0.00,WeatherCatV1.13B119,2013-06-12 06:31:00,
2013-06-12 01:36:00,74.8,70.7,29.96,SE,135,0.0,0.0,87,0.00,,,0.00,WeatherCatV1.13B119,2013-06-12 06:36:00,
2013-06-12 01:41:00,75.1,71.0,29.96,SE,144,0.0,0.0,87,0.00,,,0.00,WeatherCatV1.13B119,2013-06-12 06:41:00,
2013-06-12 01:46:00,75.3,71.2,29.96,South,191,0.0,0.0,87,0.00,,,0.00,WeatherCatV1.13B119,2013-06-12 06:46:00,
2013-06-12 01:51:00,75.3,70.8,29.96,SSW,197,0.0,0.0,86,0.00,,,0.00,WeatherCatV1.13B119,2013-06-12 06:51:00,
2013-06-12 01:56:00,75.2,71.1,29.96,NNE,27,0.0,0.0,87,0.00,,,0.00,WeatherCatV1.13B119,2013-06-12 06:56:00,
2013-06-12 02:01:00,75.4,71.2,29.96,SSE,162,0.0,0.0,87,0.00,,,0.00,WeatherCatV1.13B119,2013-06-12 07:01:00,
2013-06-12 02:06:00,75.7,71.5,29.96,SSE,152,0.0,1.0,87,0.00,,,0.00,WeatherCatV1.13B119,2013-06-12 07:06:00,
2013-06-12 02:11:00,75.8,71.6,29.96,SSE,153,0.0,1.0,87,0.00,,,0.00,WeatherCatV1.13B119,2013-06-12 07:11:00,
2013-06-12 02:16:00,75.8,71.3,29.96,SE,146,0.0,1.0,86,0.00,,,0.00,WeatherCatV1.13B119,2013-06-12 07:16:00,
2013-06-12 02:21:00,75.8,71.3,29.96,SSE,153,1.0,2.0,86,0.00,,,0.00,WeatherCatV1.13B119,2013-06-12 07:21:00,
2013-06-12 02:26:00,75.8,71.6,29.96,ESE,121,2.0,3.0,87,0.00,,,0.00,WeatherCatV1.13B119,2013-06-12 07:26:00,
2013-06-12 02:31:00,75.9,71.7,29.95,ESE,121,0.0,1.0,87,0.00,,,0.00,WeatherCatV1.13B119,2013-06-12 07:31:00,
2013-06-12 02:36:00,75.9,71.7,29.95,SE,146,1.0,2.0,87,0.00,,,0.00,WeatherCatV1.13B119,2013-06-12 07:36:00,
2013-06-12 02:41:00,75.9,71.7,29.95,ESE,111,1.0,2.0,87,0.00,,,0.00,WeatherCatV1.13B119,2013-06-12 07:41:00,
2013-06-12 02:46:00,75.8,71.6,29.95,SE,146,2.0,3.0,87,0.00,,,0.00,WeatherCatV1.13B119,2013-06-12 07:46:00,
2013-06-12 02:51:00,75.8,71.6,29.95,SSE,155,1.0,1.0,87,0.00,,,0.00,WeatherCatV1.13B119,2013-06-12 07:51:00,
2013-06-12 02:56:00,75.8,72.0,29.95,SSE,162,0.0,1.0,88,0.00,,,0.00,WeatherCatV1.13B119,2013-06-12 07:56:00,
2013-06-12 03:01:00,75.7,71.9,29.95,SE,142,1.0,3.0,88,0.00,,,0.00,WeatherCatV1.13B119,2013-06-12 08:01:00,
2013-06-12 03:06:00,75.7,71.9,29.95,East,86,1.0,2.0,88,0.00,,,0.00,WeatherCatV1.13B119,2013-06-12 08:06:00,
2013-06-12 03:11:00,75.7,71.9,29.95,ESE,118,2.0,3.0,88,0.00,,,0.00,WeatherCatV1.13B119,2013-06-12 08:11:00,
2013-06-12 03:16:00,75.8,72.0,29.95,SE,131,3.0,3.0,88,0.00,,,0.00,WeatherCatV1.13B119,2013-06-12 08:16:00,
2013-06-12 03:21:00,75.8,72.3,29.95,SW,230,0.0,1.0,89,0.00,,,0.00,WeatherCatV1.13B119,2013-06-12 08:21:00,
2013-06-12 03:26:00,75.7,72.2,29.95,SE,133,1.0,2.0,89,0.00,,,0.00,WeatherCatV1.13B119,2013-06-12 08:26:00,
2013-06-12 03:31:00,75.7,72.2,29.95,SSW,208,0.0,1.0,89,0.00,,,0.00,WeatherCatV1.13B119,2013-06-12 08:31:00,
2013-06-12 03:36:00,75.6,72.1,29.95,SE,145,1.0,5.0,89,0.00,,,0.00,WeatherCatV1.13B119,2013-06-12 08:36:00,
2013-06-12 03:41:00,75.6,72.1,29.95,SE,131,0.0,3.0,89,0.00,,,0.00,WeatherCatV1.13B119,2013-06-12 08:41:00,
2013-06-12 03:46:00,75.5,72.0,29.95,SSE,155,0.0,3.0,89,0.00,,,0.00,WeatherCatV1.13B119,2013-06-12 08:46:00,
2013-06-12 03:51:00,75.5,72.4,29.95,SE,146,1.0,2.0,90,0.00,,,0.00,WeatherCatV1.13B119,2013-06-12 08:51:00,
2013-06-12 03:56:00,75.6,72.4,29.95,SSE,147,2.0,4.0,90,0.00,,,0.00,WeatherCatV1.13B119,2013-06-12 08:56:00,
2013-06-12 04:01:00,75.6,72.1,29.94,SE,134,1.0,4.0,89,0.00,,,0.00,WeatherCatV1.13B119,2013-06-12 09:01:00,
2013-06-12 04:06:00,75.6,72.4,29.95,SE,130,1.0,3.0,90,0.00,,,0.00,WeatherCatV1.13B119,2013-06-12 09:06:00,
2013-06-12 04:11:00,75.6,72.4,29.95,SE,143,1.0,2.0,90,0.00,,,0.00,WeatherCatV1.13B119,2013-06-12 09:11:00,
2013-06-12 04:16:00,75.6,72.4,29.95,SE,138,0.0,2.0,90,0.00,,,0.00,WeatherCatV1.13B119,2013-06-12 09:16:00,
2013-06-12 04:21:00,75.5,72.4,29.95,SSE,165,1.0,1.0,90,0.00,,,0.00,WeatherCatV1.13B119,2013-06-12 09:21:00,
2013-06-12 04:26:00,75.5,72.4,29.95,ESE,123,0.0,1.0,90,0.00,,,0.00,WeatherCatV1.13B119,2013-06-12 09:26:00,
2013-06-12 04:31:00,75.4,72.3,29.95,SSE,150,0.0,2.0,90,0.00,,,0.00,WeatherCatV1.13B119,2013-06-12 09:31:00,
2013-06-12 04:36:00,75.3,72.2,29.95,SE,143,0.0,0.0,90,0.00,,,0.00,WeatherCatV1.13B119,2013-06-12 09:36:00,
2013-06-12 04:41:00,75.2,72.1,29.95,SE,146,0.0,0.0,90,0.00,,,0.00,WeatherCatV1.13B119,2013-06-12 09:41:00,
2013-06-12 04:46:00,75.0,71.9,29.95,SSE,165,0.0,0.0,90,0.00,,,0.00,WeatherCatV1.13B119,2013-06-12 09:46:00,
2013-06-12 04:51:00,74.8,71.7,29.96,WSW,255,0.0,0.0,90,0.00,,,0.00,WeatherCatV1.13B119,2013-06-12 09:51:00,
2013-06-12 04:56:00,74.7,71.6,29.96,SE,126,1.0,1.0,90,0.00,,,0.00,WeatherCatV1.13B119,2013-06-12 09:56:00,
2013-06-12 05:01:00,74.9,71.8,29.96,SW,217,0.0,2.0,90,0.00,,,0.00,WeatherCatV1.13B119,2013-06-12 10:01:00,
2013-06-12 05:06:00,74.9,71.4,29.96,WSW,258,0.0,2.0,89,0.00,,,0.00,WeatherCatV1.13B119,2013-06-12 10:06:00,
2013-06-12 05:11:00,75.0,71.5,29.96,East,91,0.0,1.0,89,0.00,,,0.00,WeatherCatV1.13B119,2013-06-12 10:11:00,
2013-06-12 05:16:00,75.0,71.5,29.96,SE,124,1.0,1.0,89,0.00,,,0.00,WeatherCatV1.13B119,2013-06-12 10:16:00,
2013-06-12 05:21:00,75.1,71.6,29.96,South,183,0.0,1.0,89,0.00,,,0.00,WeatherCatV1.13B119,2013-06-12 10:21:00,
2013-06-12 05:26:00,75.1,72.0,29.96,SSE,158,1.0,1.0,90,0.00,,,0.00,WeatherCatV1.13B119,2013-06-12 10:26:00,
2013-06-12 05:31:00,75.2,71.7,29.96,SE,142,0.0,0.0,89,0.00,,,0.00,WeatherCatV1.13B119,2013-06-12 10:31:00,
2013-06-12 05:36:00,75.1,71.6,29.96,SE,127,0.0,0.0,89,0.00,,,0.00,WeatherCatV1.13B119,2013-06-12 10:36:00,
2013-06-12 05:41:00,75.1,71.6,29.96,SE,130,0.0,0.0,89,0.00,,,0.00,WeatherCatV1.13B119,2013-06-12 10:41:00,
2013-06-12 05:46:00,75.1,72.0,29.96,ESE,113,0.0,0.0,90,0.00,,,0.00,WeatherCatV1.13B119,2013-06-12 10:46:00,
2013-06-12 05:51:00,75.1,72.0,29.96,SE,139,0.0,0.0,90,0.00,,,0.00,WeatherCatV1.13B119,2013-06-12 10:51:00,
2013-06-12 05:56:00,75.1,72.0,29.96,SSE,153,0.0,0.0,90,0.00,,,0.00,WeatherCatV1.13B119,2013-06-12 10:56:00,
2013-06-12 06:01:00,75.2,72.1,29.96,SE,129,1.0,3.0,90,0.00,,,0.00,WeatherCatV1.13B119,2013-06-12 11:01:00,
2013-06-12 06:06:00,75.2,72.1,29.96,SE,131,0.0,1.0,90,0.00,,,0.00,WeatherCatV1.13B119,2013-06-12 11:06:00,
2013-06-12 06:11:00,75.2,72.1,29.96,SE,125,0.0,0.0,90,0.00,,,0.00,WeatherCatV1.13B119,2013-06-12 11:11:00,
2013-06-12 06:16:00,75.1,72.0,29.96,SE,133,0.0,0.0,90,0.00,,,0.00,WeatherCatV1.13B119,2013-06-12 11:16:00,
2013-06-12 06:21:00,75.1,72.3,29.96,SSE,160,0.0,0.0,91,0.00,,,0.00,WeatherCatV1.13B119,2013-06-12 11:21:00,
2013-06-12 06:26:00,75.1,72.3,29.96,SE,141,0.0,0.0,91,0.00,,,0.00,WeatherCatV1.13B119,2013-06-12 11:26:00,
2013-06-12 06:31:00,75.1,72.3,29.96,SE,127,1.0,4.0,91,0.00,,,0.00,WeatherCatV1.13B119,2013-06-12 11:31:00,
2013-06-12 06:36:00,75.3,72.5,29.96,SE,125,2.0,3.0,91,0.00,,,0.00,WeatherCatV1.13B119,2013-06-12 11:36:00,
2013-06-12 06:41:00,75.4,72.6,29.97,SE,138,1.0,3.0,91,0.00,,,0.00,WeatherCatV1.13B119,2013-06-12 11:41:00,
2013-06-12 06:46:00,75.5,72.7,29.97,East,96,2.0,3.0,91,0.00,,,0.00,WeatherCatV1.13B119,2013-06-12 11:46:00,
2013-06-12 06:51:00,75.6,72.4,29.96,SE,144,1.0,1.0,90,0.00,,,0.00,WeatherCatV1.13B119,2013-06-12 11:51:00,
2013-06-12 06:56:00,75.6,72.4,29.96,SE,129,0.0,0.0,90,0.00,,,0.00,WeatherCatV1.13B119,2013-06-12 11:56:00,
2013-06-12 07:01:00,75.7,72.5,29.96,ESE,115,2.0,2.0,90,0.00,,,0.00,WeatherCatV1.13B119,2013-06-12 12:01:00,
2013-06-12 07:06:00,75.8,72.6,29.97,SE,146,2.0,3.0,90,0.00,,,0.00,WeatherCatV1.13B119,2013-06-12 12:06:00,
2013-06-12 07:11:00,76.0,72.8,29.97,SSE,164,2.0,2.0,90,0.00,,,0.00,WeatherCatV1.13B119,2013-06-12 12:11:00,
2013-06-12 07:16:00,76.1,72.9,29.97,SE,134,1.0,4.0,90,0.00,,,0.00,WeatherCatV1.13B119,2013-06-12 12:16:00,
2013-06-12 07:21:00,76.2,73.0,29.97,SE,142,2.0,3.0,90,0.00,,,0.00,WeatherCatV1.13B119,2013-06-12 12:21:00,
2013-06-12 07:26:00,76.4,72.9,29.97,ESE,122,2.0,2.0,89,0.00,,,0.00,WeatherCatV1.13B119,2013-06-12 12:26:00,
2013-06-12 07:31:00,76.5,73.0,29.97,SE,132,1.0,3.0,89,0.00,,,0.00,WeatherCatV1.13B119,2013-06-12 12:31:00,
2013-06-12 07:36:00,76.7,72.9,29.97,SE,139,2.0,3.0,88,0.00,,,0.00,WeatherCatV1.13B119,2013-06-12 12:36:00,
2013-06-12 07:41:00,76.7,72.9,29.97,SE,136,4.0,5.0,88,0.00,,,0.00,WeatherCatV1.13B119,2013-06-12 12:41:00,
2013-06-12 07:46:00,76.7,72.9,29.97,SE,140,2.0,3.0,88,0.00,,,0.00,WeatherCatV1.13B119,2013-06-12 12:46:00,
2013-06-12 07:51:00,76.8,73.0,29.97,SE,134,2.0,4.0,88,0.00,,,0.00,WeatherCatV1.13B119,2013-06-12 12:51:00,
2013-06-12 07:56:00,77.0,73.2,29.97,SSE,150,2.0,3.0,88,0.00,,,0.00,WeatherCatV1.13B119,2013-06-12 12:56:00,
2013-06-12 08:01:00,77.2,73.4,29.97,ESE,120,2.0,4.0,88,0.00,,,0.00,WeatherCatV1.13B119,2013-06-12 13:01:00,
2013-06-12 08:06:00,77.5,73.3,29.97,SE,127,5.0,5.0,87,0.00,,,0.00,WeatherCatV1.13B119,2013-06-12 13:06:00,
2013-06-12 08:11:00,77.8,73.3,29.97,South,188,3.0,6.0,86,0.00,,,0.00,WeatherCatV1.13B119,2013-06-12 13:11:00,
2013-06-12 08:16:00,78.1,73.2,29.98,SE,128,1.0,6.0,85,0.00,,,0.00,WeatherCatV1.13B119,2013-06-12 13:16:00,
2013-06-12 08:21:00,78.5,73.2,29.98,SSW,200,1.0,4.0,84,0.00,,,0.00,WeatherCatV1.13B119,2013-06-12 13:21:00,
2013-06-12 08:26:00,79.2,73.6,29.98,SE,125,2.0,3.0,83,0.00,,,0.00,WeatherCatV1.13B119,2013-06-12 13:26:00,
2013-06-12 08:31:00,79.8,73.4,29.99,West,275,1.0,7.0,81,0.00,,,0.00,WeatherCatV1.13B119,2013-06-12 13:31:00,
2013-06-12 08:36:00,80.2,73.5,29.99,South,184,3.0,4.0,80,0.00,,,0.00,WeatherCatV1.13B119,2013-06-12 13:36:00,
2013-06-12 08:41:00,80.1,73.4,29.99,East,101,2.0,4.0,80,0.00,,,0.00,WeatherCatV1.13B119,2013-06-12 13:41:00,
2013-06-12 08:46:00,80.1,73.0,29.99,ESE,122,3.0,4.0,79,0.00,,,0.00,WeatherCatV1.13B119,2013-06-12 13:46:00,
2013-06-12 08:51:00,80.2,73.1,29.99,WNW,287,0.0,4.0,79,0.00,,,0.00,WeatherCatV1.13B119,2013-06-12 13:51:00,
2013-06-12 08:56:00,80.7,73.6,29.99,ESE,118,1.0,3.0,79,0.00,,,0.00,WeatherCatV1.13B119,2013-06-12 13:56:00,
2013-06-12 09:01:00,81.2,72.9,29.99,SE,127,3.0,5.0,76,0.00,,,0.00,WeatherCatV1.13B119,2013-06-12 14:01:00,
2013-06-12 09:06:00,81.6,72.9,29.99,SSE,153,4.0,6.0,75,0.00,,,0.00,WeatherCatV1.13B119,2013-06-12 14:06:00,
2013-06-12 09:11:00,81.7,72.6,29.99,SSE,167,4.0,6.0,74,0.00,,,0.00,WeatherCatV1.13B119,2013-06-12 14:11:00,
2013-06-12 09:16:00,81.9,73.2,29.99,ESE,119,1.0,4.0,75,0.00,,,0.00,WeatherCatV1.13B119,2013-06-12 14:16:00,
2013-06-12 09:21:00,82.3,73.2,29.99,South,189,2.0,3.0,74,0.00,,,0.00,WeatherCatV1.13B119,2013-06-12 14:21:00,
2013-06-12 09:26:00,82.7,73.5,29.99,East,98,2.0,5.0,74,0.00,,,0.00,WeatherCatV1.13B119,2013-06-12 14:26:00,
2013-06-12 09:31:00,83.5,73.5,29.99,SSE,149,4.0,6.0,72,0.00,,,0.00,WeatherCatV1.13B119,2013-06-12 14:31:00,
2013-06-12 09:36:00,83.6,73.2,29.99,SE,129,1.0,4.0,71,0.00,,,0.00,WeatherCatV1.13B119,2013-06-12 14:36:00,
2013-06-12 09:41:00,84.4,73.1,29.99,ESE,111,4.0,4.0,69,0.00,,,0.00,WeatherCatV1.13B119,2013-06-12 14:41:00,
2013-06-12 09:46:00,84.8,73.0,29.99,SSE,160,3.0,7.0,68,0.00,,,0.00,WeatherCatV1.13B119,2013-06-12 14:46:00,
2013-06-12 09:51:00,85.2,73.4,29.99,SE,124,2.0,4.0,68,0.00,,,0.00,WeatherCatV1.13B119,2013-06-12 14:51:00,
2013-06-12 09:56:00,85.2,72.5,29.99,ESE,110,3.0,6.0,66,0.00,,,0.00,WeatherCatV1.13B119,2013-06-12 14:56:00,
2013-06-12 10:01:00,85.3,72.6,29.99,SE,141,3.0,6.0,66,0.00,,,0.00,WeatherCatV1.13B119,2013-06-12 15:01:00,
2013-06-12 10:06:00,85.8,72.6,29.99,ESE,121,4.0,6.0,65,0.00,,,0.00,WeatherCatV1.13B119,2013-06-12 15:06:00,
2013-06-12 10:11:00,86.4,73.2,29.99,NE,54,1.0,4.0,65,0.00,,,0.00,WeatherCatV1.13B119,2013-06-12 15:11:00,
2013-06-12 10:16:00,85.9,71.8,29.99,ESE,111,3.0,9.0,63,0.00,,,0.00,WeatherCatV1.13B119,2013-06-12 15:16:00,
2013-06-12 10:21:00,85.1,72.0,29.99,SE,128,1.0,5.0,65,0.00,,,0.00,WeatherCatV1.13B119,2013-06-12 15:21:00,
2013-06-12 10:26:00,85.7,72.5,29.99,ESE,121,4.0,5.0,65,0.00,,,0.00,WeatherCatV1.13B119,2013-06-12 15:26:00,
2013-06-12 10:31:00,85.9,72.3,29.99,East,96,4.0,5.0,64,0.00,,,0.00,WeatherCatV1.13B119,2013-06-12 15:31:00,
2013-06-12 10:36:00,86.4,72.7,29.99,SSW,195,2.0,4.0,64,0.00,,,0.00,WeatherCatV1.13B119,2013-06-12 15:36:00,
2013-06-12 10:41:00,86.4,72.3,29.98,SSW,211,3.0,6.0,63,0.00,,,0.00,WeatherCatV1.13B119,2013-06-12 15:41:00,
2013-06-12 10:46:00,85.8,72.2,29.98,SW,228,1.0,5.0,64,0.00,,,0.00,WeatherCatV1.13B119,2013-06-12 15:46:00,
2013-06-12 10:51:00,85.2,72.5,29.98,SW,221,1.0,5.0,66,0.00,,,0.00,WeatherCatV1.13B119,2013-06-12 15:51:00,
2013-06-12 10:56:00,84.9,72.2,29.98,ESE,106,1.0,4.0,66,0.00,,,0.00,WeatherCatV1.13B119,2013-06-12 15:56:00,
2013-06-12 11:01:00,86.0,73.7,29.98,SSE,150,3.0,6.0,67,0.00,,,0.00,WeatherCatV1.13B119,2013-06-12 16:01:00,
2013-06-12 11:06:00,87.9,73.7,29.98,SSW,212,3.0,3.0,63,0.00,,,0.00,WeatherCatV1.13B119,2013-06-12 16:06:00,
2013-06-12 11:11:00,89.1,73.4,29.98,SW,218,1.0,4.0,60,0.00,,,0.00,WeatherCatV1.13B119,2013-06-12 16:11:00,
2013-06-12 11:16:00,89.7,72.9,29.98,SSW,207,2.0,5.0,58,0.00,,,0.00,WeatherCatV1.13B119,2013-06-12 16:16:00,
2013-06-12 11:21:00,89.9,72.6,29.98,WNW,300,3.0,5.0,57,0.00,,,0.00,WeatherCatV1.13B119,2013-06-12 16:21:00,
2013-06-12 11:26:00,88.9,72.7,29.98,SSW,212,2.0,2.0,59,0.00,,,0.00,WeatherCatV1.13B119,2013-06-12 16:26:00,
2013-06-12 11:31:00,88.4,72.2,29.98,SW,224,0.0,3.0,59,0.00,,,0.00,WeatherCatV1.13B119,2013-06-12 16:31:00,
2013-06-12 11:36:00,88.9,72.2,29.99,WSW,243,7.0,9.0,58,0.00,,,0.00,WeatherCatV1.13B119,2013-06-12 16:36:00,
2013-06-12 11:40:00,88.0,71.8,29.99,SW,219,1.0,6.0,59,0.00,,,0.00,WeatherCatV1.13B119,2013-06-12 16:40:00,
2013-06-12 11:45:00,87.3,72.2,29.99,SE,146,2.0,3.0,61,0.00,,,0.00,WeatherCatV1.13B119,2013-06-12 16:45:00,
2013-06-12 11:50:00,87.3,71.7,29.99,WSW,238,4.0,7.0,60,0.00,,,0.00,WeatherCatV1.13B119,2013-06-12 16:50:00,
2013-06-12 11:55:00,87.7,72.5,29.99,SW,236,3.0,4.0,61,0.00,,,0.00,WeatherCatV1.13B119,2013-06-12 16:55:00,
2013-06-12 12:00:00,88.4,72.7,29.99,SSW,198,0.0,2.0,60,0.00,,,0.00,WeatherCatV1.13B119,2013-06-12 17:00:00,
2013-06-12 12:05:00,88.6,71.9,29.99,SE,136,1.0,3.0,58,0.00,,,0.00,WeatherCatV1.13B119,2013-06-12 17:05:00,
2013-06-12 12:10:00,88.6,71.9,29.99,SE,145,0.0,3.0,58,0.00,,,0.00,WeatherCatV1.13B119,2013-06-12 17:10:00,
2013-06-12 12:15:00,88.5,71.8,29.99,South,177,3.0,5.0,58,0.00,,,0.00,WeatherCatV1.13B119,2013-06-12 17:15:00,
2013-06-12 12:20:00,89.0,72.8,29.99,South,190,1.0,3.0,59,0.00,,,0.00,WeatherCatV1.13B119,2013-06-12 17:20:00,
2013-06-12 12:25:00,89.5,72.2,29.99,SE,131,2.0,6.0,57,0.00,,,0.00,WeatherCatV1.13B119,2013-06-12 17:25:00,
2013-06-12 12:30:00,90.6,72.2,29.99,SE,142,4.0,5.0,55,0.00,,,0.00,WeatherCatV1.13B119,2013-06-12 17:30:00,
2013-06-12 12:35:00,91.2,72.2,29.98,SE,125,2.0,4.0,54,0.00,,,0.00,WeatherCatV1.13B119,2013-06-12 17:35:00,
2013-06-12 12:40:00,91.4,72.4,29.98,SSW,200,1.0,3.0,54,0.00,,,0.00,WeatherCatV1.13B119,2013-06-12 17:40:00,
2013-06-12 12:45:00,91.4,71.8,29.98,East,85,2.0,4.0,53,0.00,,,0.00,WeatherCatV1.13B119,2013-06-12 17:45:00,
2013-06-12 12:50:00,90.6,70.5,29.98,WSW,242,2.0,7.0,52,0.00,,,0.00,WeatherCatV1.13B119,2013-06-12 17:50:00,
2013-06-12 12:55:00,90.0,70.5,29.98,SSW,207,2.0,3.0,53,0.00,,,0.00,WeatherCatV1.13B119,2013-06-12 17:55:00,
2013-06-12 13:00:00,90.6,71.6,29.98,SSW,203,0.0,4.0,54,0.00,,,0.00,WeatherCatV1.13B119,2013-06-12 18:00:00,
2013-06-12 13:05:00,91.6,70.9,29.98,East,91,5.0,6.0,51,0.00,,,0.00,WeatherCatV1.13B119,2013-06-12 18:05:00,
2013-06-12 13:10:00,91.9,71.1,29.98,SSE,150,1.0,6.0,51,0.00,,,0.00,WeatherCatV1.13B119,2013-06-12 18:10:00,
2013-06-12 13:15:00,92.5,71.1,29.98,East,94,1.0,8.0,50,0.00,,,0.00,WeatherCatV1.13B119,2013-06-12 18:15:00,
2013-06-12 13:20:00,93.1,69.2,29.97,SE,128,1.0,6.0,46,0.00,,,0.00,WeatherCatV1.13B119,2013-06-12 18:20:00,
2013-06-12 13:25:00,93.2,69.9,29.97,SSE,148,2.0,6.0,47,0.00,,,0.00,WeatherCatV1.13B119,2013-06-12 18:25:00,
2013-06-12 13:30:00,93.6,71.5,29.97,ENE,77,2.0,4.0,49,0.00,,,0.00,WeatherCatV1.13B119,2013-06-12 18:30:00,
2013-06-12 13:35:00,93.4,70.7,29.97,SE,143,3.0,6.0,48,0.00,,,0.00,WeatherCatV1.13B119,2013-06-12 18:35:00,
2013-06-12 13:40:00,93.0,71.0,29.97,SW,217,5.0,6.0,49,0.00,,,0.00,WeatherCatV1.13B119,2013-06-12 18:40:00,
2013-06-12 13:45:00,93.5,71.4,29.97,ESE,120,4.0,5.0,49,0.00,,,0.00,WeatherCatV1.13B119,2013-06-12 18:45:00,
2013-06-12 13:50:00,94.2,70.8,29.97,ESE,122,4.0,4.0,47,0.00,,,0.00,WeatherCatV1.13B119,2013-06-12 18:50:00,
2013-06-12 13:55:00,93.8,69.8,29.96,West,267,4.0,6.0,46,0.00,,,0.00,WeatherCatV1.13B119,2013-06-12 18:55:00,
2013-06-12 14:00:00,94.1,70.7,29.96,West,264,2.0,7.0,47,0.00,,,0.00,WeatherCatV1.13B119,2013-06-12 19:00:00,
2013-06-12 14:05:00,94.3,70.3,29.96,South,191,4.0,6.0,46,0.00,,,0.00,WeatherCatV1.13B119,2013-06-12 19:05:00,
2013-06-12 14:10:00,94.9,70.8,29.95,ESE,115,1.0,4.0,46,0.00,,,0.00,WeatherCatV1.13B119,2013-06-12 19:10:00,
2013-06-12 14:15:00,95.0,70.3,29.95,SE,136,3.0,5.0,45,0.00,,,0.00,WeatherCatV1.13B119,2013-06-12 19:15:00,
2013-06-12 14:20:00,95.5,70.1,29.95,ESE,115,1.0,3.0,44,0.00,,,0.00,WeatherCatV1.13B119,2013-06-12 19:20:00,
2013-06-12 14:25:00,95.1,69.7,29.95,ENE,64,4.0,4.0,44,0.00,,,0.00,WeatherCatV1.13B119,2013-06-12 19:25:00,
2013-06-12 14:30:00,95.0,68.9,29.94,SSE,165,3.0,6.0,43,0.00,,,0.00,WeatherCatV1.13B119,2013-06-12 19:30:00,
2013-06-12 14:35:00,96.0,69.1,29.94,SSE,162,5.0,5.0,42,0.00,,,0.00,WeatherCatV1.13B119,2013-06-12 19:35:00,
2013-06-12 14:40:00,96.1,69.2,29.94,SSW,199,4.0,5.0,42,0.00,,,0.00,WeatherCatV1.13B119,2013-06-12 19:40:00,
2013-06-12 14:45:00,96.0,70.5,29.94,WSW,257,2.0,6.0,44,0.00,,,0.00,WeatherCatV1.13B119,2013-06-12 19:45:00,
2013-06-12 14:50:00,96.6,69.7,29.94,SE,144,5.0,5.0,42,0.00,,,0.00,WeatherCatV1.13B119,2013-06-12 19:50:00,
2013-06-12 14:55:00,95.6,68.1,29.94,East,94,7.0,8.0,41,0.00,,,0.00,WeatherCatV1.13B119,2013-06-12 19:55:00,
2013-06-12 14:57:00,95.2,67.7,29.93,NW,324,2.0,8.0,41,0.00,,,0.00,WeatherCatV1.13B119,2013-06-12 19:57:00,
2013-06-12 15:02:00,95.1,69.0,29.93,SSE,148,2.0,3.0,43,0.00,,,0.00,WeatherCatV1.13B119,2013-06-12 20:02:00,
2013-06-12 15:07:00,94.8,70.1,29.93,ESE,112,2.0,6.0,45,0.00,,,0.00,WeatherCatV1.13B119,2013-06-12 20:07:00,
2013-06-12 15:12:00,94.8,69.4,29.93,SSE,150,4.0,4.0,44,0.00,,,0.00,WeatherCatV1.13B119,2013-06-12 20:12:00,
2013-06-12 15:17:00,95.7,69.6,29.92,ESE,103,1.0,5.0,43,0.00,,,0.00,WeatherCatV1.13B119,2013-06-12 20:17:00,
2013-06-12 15:22:00,95.2,69.1,29.92,SSE,152,4.0,7.0,43,0.00,,,0.00,WeatherCatV1.13B119,2013-06-12 20:22:00,
2013-06-12 15:27:00,95.3,69.2,29.92,WSW,240,2.0,8.0,43,0.00,,,0.00,WeatherCatV1.13B119,2013-06-12 20:27:00,
2013-06-12 15:32:00,96.2,68.6,29.92,SSE,164,4.0,8.0,41,0.00,,,0.00,WeatherCatV1.13B119,2013-06-12 20:32:00,
2013-06-12 15:37:00,97.1,69.4,29.92,SSE,155,3.0,5.0,41,0.00,,,0.00,WeatherCatV1.13B119,2013-06-12 20:37:00,
2013-06-12 15:42:00,97.6,69.1,29.92,SSW,199,2.0,5.0,40,0.00,,,0.00,WeatherCatV1.13B119,2013-06-12 20:42:00,
2013-06-12 15:47:00,96.6,69.0,29.92,SE,136,3.0,4.0,41,0.00,,,0.00,WeatherCatV1.13B119,2013-06-12 20:47:00,
2013-06-12 15:52:00,95.8,69.7,29.91,SE,129,3.0,3.0,43,0.00,,,0.00,WeatherCatV1.13B119,2013-06-12 20:52:00,
2013-06-12 15:57:00,96.6,69.7,29.91,SSE,147,3.0,4.0,42,0.00,,,0.00,WeatherCatV1.13B119,2013-06-12 20:57:00,
2013-06-12 16:02:00,95.6,68.1,29.91,SE,142,4.0,6.0,41,0.00,,,0.00,WeatherCatV1.13B119,2013-06-12 21:02:00,
2013-06-12 16:07:00,94.6,68.6,29.91,East,81,3.0,5.0,43,0.00,,,0.00,WeatherCatV1.13B119,2013-06-12 21:07:00,
2013-06-12 16:12:00,94.3,68.3,29.91,SE,144,1.0,4.0,43,0.00,,,0.00,WeatherCatV1.13B119,2013-06-12 21:12:00,
2013-06-12 16:17:00,95.3,69.2,29.90,SSE,160,2.0,2.0,43,0.00,,,0.00,WeatherCatV1.13B119,2013-06-12 21:17:00,
2013-06-12 16:22:00,96.1,69.2,29.90,SSE,147,2.0,3.0,42,0.00,,,0.00,WeatherCatV1.13B119,2013-06-12 21:22:00,
2013-06-12 16:27:00,96.7,69.1,29.90,South,169,1.0,7.0,41,0.00,,,0.00,WeatherCatV1.13B119,2013-06-12 21:27:00,
2013-06-12 16:32:00,96.1,69.2,29.89,ESE,122,3.0,4.0,42,0.00,,,0.00,WeatherCatV1.13B119,2013-06-12 21:32:00,
2013-06-12 16:37:00,97.1,68.0,29.89,SE,134,2.0,4.0,39,0.00,,,0.00,WeatherCatV1.13B119,2013-06-12 21:37:00,
2013-06-12 16:42:00,97.7,67.7,29.89,East,87,3.0,4.0,38,0.00,,,0.00,WeatherCatV1.13B119,2013-06-12 21:42:00,
2013-06-12 16:47:00,96.5,67.4,29.89,SE,130,6.0,6.0,39,0.00,,,0.00,WeatherCatV1.13B119,2013-06-12 21:47:00,
2013-06-12 16:52:00,94.8,67.4,29.89,SE,131,2.0,2.0,41,0.00,,,0.00,WeatherCatV1.13B119,2013-06-12 21:52:00,
2013-06-12 16:57:00,94.6,67.9,29.89,SE,146,3.0,4.0,42,0.00,,,0.00,WeatherCatV1.13B119,2013-06-12 21:57:00,
2013-06-12 17:02:00,95.6,67.4,29.89,South,174,2.0,4.0,40,0.00,,,0.00,WeatherCatV1.13B119,2013-06-12 22:02:00,
2013-06-12 17:07:00,95.1,66.9,29.88,SSE,154,2.0,2.0,40,0.00,,,0.00,WeatherCatV1.13B119,2013-06-12 22:07:00,
2013-06-12 17:12:00,95.5,68.0,29.88,ESE,117,1.0,2.0,41,0.00,,,0.00,WeatherCatV1.13B119,2013-06-12 22:12:00,
2013-06-12 17:17:00,95.9,67.6,29.89,SE,143,3.0,4.0,40,0.00,,,0.00,WeatherCatV1.13B119,2013-06-12 22:17:00,
2013-06-12 17:22:00,96.4,69.5,29.88,West,281,2.0,4.0,42,0.00,,,0.00,WeatherCatV1.13B119,2013-06-12 22:22:00,
2013-06-12 17:27:00,95.9,69.7,29.88,SE,136,4.0,7.0,43,0.00,,,0.00,WeatherCatV1.13B119,2013-06-12 22:27:00,
2013-06-12 17:32:00,95.7,69.6,29.88,SE,126,3.0,5.0,43,0.00,,,0.00,WeatherCatV1.13B119,2013-06-12 22:32:00,
2013-06-12 17:37:00,95.0,71.6,29.88,ESE,110,5.0,7.0,47,0.00,,,0.00,WeatherCatV1.13B119,2013-06-12 22:37:00,
2013-06-12 17:42:00,94.6,73.6,29.88,ESE,102,6.0,7.0,51,0.00,,,0.00,WeatherCatV1.13B119,2013-06-12 22:42:00,
2013-06-12 17:47:00,93.5,73.8,29.87,SSE,152,4.0,8.0,53,0.00,,,0.00,WeatherCatV1.13B119,2013-06-12 22:47:00,
2013-06-12 17:52:00,92.9,74.3,29.88,South,185,2.0,6.0,55,0.00,,,0.00,WeatherCatV1.13B119,2013-06-12 22:52:00,
2013-06-12 17:57:00,92.9,74.3,29.88,East,99,3.0,5.0,55,0.00,,,0.00,WeatherCatV1.13B119,2013-06-12 22:57:00,
2013-06-12 18:02:00,93.1,73.9,29.88,ESE,108,3.0,6.0,54,0.00,,,0.00,WeatherCatV1.13B119,2013-06-12 23:02:00,
2013-06-12 18:07:00,93.5,73.8,29.88,East,98,3.0,4.0,53,0.00,,,0.00,WeatherCatV1.13B119,2013-06-12 23:07:00,
2013-06-12 18:12:00,93.4,73.7,29.89,SE,146,3.0,6.0,53,0.00,,,0.00,WeatherCatV1.13B119,2013-06-12 23:12:00,
2013-06-12 18:17:00,93.0,74.4,29.89,SE,134,2.0,5.0,55,0.00,,,0.00,WeatherCatV1.13B119,2013-06-12 23:17:00,
2013-06-12 18:22:00,92.6,72.9,29.89,ESE,120,5.0,6.0,53,0.00,,,0.00,WeatherCatV1.13B119,2013-06-12 23:22:00,
2013-06-12 18:27:00,92.2,73.1,29.89,ESE,109,5.0,6.0,54,0.00,,,0.00,WeatherCatV1.13B119,2013-06-12 23:27:00,
2013-06-12 18:32:00,91.7,73.2,29.89,East,82,2.0,5.0,55,0.00,,,0.00,WeatherCatV1.13B119,2013-06-12 23:32:00,
2013-06-12 18:37:00,91.8,72.7,29.89,ESE,106,5.0,7.0,54,0.00,,,0.00,WeatherCatV1.13B119,2013-06-12 23:37:00,
2013-06-12 18:40:00,91.8,72.7,29.89,SE,138,2.0,6.0,54,0.00,,,0.00,WeatherCatV1.13B119,2013-06-12 23:40:00,
2013-06-12 18:45:00,92.2,72.0,29.89,SE,127,2.0,6.0,52,0.00,,,0.00,WeatherCatV1.13B119,2013-06-12 23:45:00,
2013-06-12 18:50:00,92.3,71.5,29.89,SSE,161,4.0,8.0,51,0.00,,,0.00,WeatherCatV1.13B119,2013-06-12 23:50:00,
2013-06-12 18:55:00,92.4,72.2,29.89,SE,143,3.0,3.0,52,0.00,,,0.00,WeatherCatV1.13B119,2013-06-12 23:55:00,
2013-06-12 19:00:00,92.5,71.7,29.89,ESE,119,4.0,7.0,51,0.00,,,0.00,WeatherCatV1.13B119,2013-06-13 00:00:00,
2013-06-12 19:05:00,91.9,69.4,29.89,SE,126,3.0,6.0,48,0.00,,,0.00,WeatherCatV1.13B119,2013-06-13 00:05:00,
2013-06-12 19:10:00,91.5,69.0,29.89,SE,129,3.0,5.0,48,0.00,,,0.00,WeatherCatV1.13B119,2013-06-13 00:10:00,
2013-06-12 19:15:00,91.1,69.2,29.89,SE,138,4.0,7.0,49,0.00,,,0.00,WeatherCatV1.13B119,2013-06-13 00:15:00,
2013-06-12 19:20:00,90.6,68.8,29.89,SE,129,2.0,6.0,49,0.00,,,0.00,WeatherCatV1.13B119,2013-06-13 00:20:00,
2013-06-12 19:25:00,90.1,69.5,29.89,SSE,148,3.0,6.0,51,0.00,,,0.00,WeatherCatV1.13B119,2013-06-13 00:25:00,
2013-06-12 19:30:00,89.6,69.6,29.90,SSE,157,2.0,7.0,52,0.00,,,0.00,WeatherCatV1.13B119,2013-06-13 00:30:00,
2013-06-12 19:35:00,89.0,70.2,29.90,SSE,151,5.0,6.0,54,0.00,,,0.00,WeatherCatV1.13B119,2013-06-13 00:35:00,
2013-06-12 19:40:00,88.6,70.3,29.90,SE,142,3.0,4.0,55,0.00,,,0.00,WeatherCatV1.13B119,2013-06-13 00:40:00,
2013-06-12 19:45:00,88.3,70.6,29.91,ENE,72,2.0,6.0,56,0.00,,,0.00,WeatherCatV1.13B119,2013-06-13 00:45:00,
2013-06-12 19:50:00,88.0,70.8,29.90,SE,142,2.0,5.0,57,0.00,,,0.00,WeatherCatV1.13B119,2013-06-13 00:50:00,
2013-06-12 19:55:00,87.8,71.1,29.91,South,174,5.0,6.0,58,0.00,,,0.00,WeatherCatV1.13B119,2013-06-13 00:55:00,
2013-06-12 20:00:00,87.6,72.0,29.91,SSE,167,5.0,7.0,60,0.00,,,0.00,WeatherCatV1.13B119,2013-06-13 01:00:00,
2013-06-12 20:05:00,87.2,72.1,29.91,SE,133,4.0,8.0,61,0.00,,,0.00,WeatherCatV1.13B119,2013-06-13 01:05:00,
2013-06-12 20:10:00,86.8,71.7,29.91,ESE,109,6.0,7.0,61,0.00,,,0.00,WeatherCatV1.13B119,2013-06-13 01:10:00,
2013-06-12 20:15:00,86.4,70.8,29.91,SE,140,5.0,6.0,60,0.00,,,0.00,WeatherCatV1.13B119,2013-06-13 01:15:00,
2013-06-12 20:20:00,86.1,70.6,29.91,SSE,156,3.0,7.0,60,0.00,,,0.00,WeatherCatV1.13B119,2013-06-13 01:20:00,
2013-06-12 20:25:00,85.9,70.4,29.91,SE,129,3.0,7.0,60,0.00,,,0.00,WeatherCatV1.13B119,2013-06-13 01:25:00,
2013-06-12 20:30:00,85.7,70.2,29.91,SSE,165,5.0,5.0,60,0.00,,,0.00,WeatherCatV1.13B119,2013-06-13 01:30:00,
2013-06-12 20:35:00,85.4,70.4,29.91,ESE,115,0.0,3.0,61,0.00,,,0.00,WeatherCatV1.13B119,2013-06-13 01:35:00,
2013-06-12 20:40:00,85.1,70.6,29.91,SSE,155,1.0,2.0,62,0.00,,,0.00,WeatherCatV1.13B119,2013-06-13 01:40:00,
2013-06-12 20:45:00,84.8,70.8,29.91,SE,131,1.0,6.0,63,0.00,,,0.00,WeatherCatV1.13B119,2013-06-13 01:45:00,
2013-06-12 20:50:00,84.5,71.0,29.91,SSE,148,1.0,3.0,64,0.00,,,0.00,WeatherCatV1.13B119,2013-06-13 01:50:00,
2013-06-12 20:55:00,84.2,70.7,29.91,SSE,155,1.0,4.0,64,0.00,,,0.00,WeatherCatV1.13B119,2013-06-13 01:55:00,
2013-06-12 21:00:00,84.0,70.9,29.92,ESE,116,1.0,2.0,65,0.00,,,0.00,WeatherCatV1.13B119,2013-06-13 02:00:00,
2013-06-12 21:05:00,83.8,70.8,29.92,ESE,108,2.0,3.0,65,0.00,,,0.00,WeatherCatV1.13B119,2013-06-13 02:05:00,
2013-06-12 21:10:00,83.7,71.1,29.92,SE,124,1.0,3.0,66,0.00,,,0.00,WeatherCatV1.13B119,2013-06-13 02:10:00,
2013-06-12 21:15:00,83.5,70.9,29.92,SSE,149,1.0,2.0,66,0.00,,,0.00,WeatherCatV1.13B119,2013-06-13 02:15:00,
2013-06-12 21:20:00,83.4,70.8,29.92,SE,143,3.0,4.0,66,0.00,,,0.00,WeatherCatV1.13B119,2013-06-13 02:20:00,
2013-06-12 21:25:00,83.3,71.2,29.92,SE,135,1.0,2.0,67,0.00,,,0.00,WeatherCatV1.13B119,2013-06-13 02:25:00,
2013-06-12 21:30:00,83.2,71.1,29.93,SSE,158,0.0,2.0,67,0.00,,,0.00,WeatherCatV1.13B119,2013-06-13 02:30:00,
2013-06-12 21:35:00,83.0,71.3,29.93,SE,136,1.0,2.0,68,0.00,,,0.00,WeatherCatV1.13B119,2013-06-13 02:35:00,
2013-06-12 21:40:00,82.8,71.1,29.93,East,101,2.0,2.0,68,0.00,,,0.00,WeatherCatV1.13B119,2013-06-13 02:40:00,
2013-06-12 21:45:00,82.6,71.4,29.93,SSE,150,3.0,4.0,69,0.00,,,0.00,WeatherCatV1.13B119,2013-06-13 02:45:00,
2013-06-12 21:50:00,82.5,71.3,29.93,SW,235,1.0,5.0,69,0.00,,,0.00,WeatherCatV1.13B119,2013-06-13 02:50:00,
2013-06-12 21:55:00,82.4,71.6,29.93,SE,142,3.0,4.0,70,0.00,,,0.00,WeatherCatV1.13B119,2013-06-13 02:55:00,
2013-06-12 22:00:00,82.3,71.5,29.93,SE,135,2.0,5.0,70,0.00,,,0.00,WeatherCatV1.13B119,2013-06-13 03:00:00,
2013-06-12 22:05:00,82.2,71.4,29.94,ESE,110,2.0,4.0,70,0.00,,,0.00,WeatherCatV1.13B119,2013-06-13 03:05:00,
2013-06-12 22:10:00,82.1,71.7,29.94,SE,127,3.0,3.0,71,0.00,,,0.00,WeatherCatV1.13B119,2013-06-13 03:10:00,
2013-06-12 22:15:00,82.0,71.6,29.94,SE,143,1.0,2.0,71,0.00,,,0.00,WeatherCatV1.13B119,2013-06-13 03:15:00,
2013-06-12 22:20:00,81.9,71.5,29.94,South,178,4.0,4.0,71,0.00,,,0.00,WeatherCatV1.13B119,2013-06-13 03:20:00,
2013-06-12 22:25:00,81.7,71.8,29.94,SE,143,1.0,2.0,72,0.00,,,0.00,WeatherCatV1.13B119,2013-06-13 03:25:00,
2013-06-12 22:30:00,81.6,71.7,29.94,SE,137,1.0,1.0,72,0.00,,,0.00,WeatherCatV1.13B119,2013-06-13 03:30:00,
2013-06-12 22:35:00,81.5,71.6,29.94,ESE,116,0.0,1.0,72,0.00,,,0.00,WeatherCatV1.13B119,2013-06-13 03:35:00,
2013-06-12 22:40:00,81.3,71.8,29.95,ESE,120,0.0,0.0,73,0.00,,,0.00,WeatherCatV1.13B119,2013-06-13 03:40:00,
2013-06-12 22:45:00,81.1,71.6,29.95,SE,132,0.0,0.0,73,0.00,,,0.00,WeatherCatV1.13B119,2013-06-13 03:45:00,
2013-06-12 22:50:00,81.0,71.9,29.94,SE,136,0.0,1.0,74,0.00,,,0.00,WeatherCatV1.13B119,2013-06-13 03:50:00,
2013-06-12 22:55:00,80.9,71.8,29.94,SE,125,1.0,3.0,74,0.00,,,0.00,WeatherCatV1.13B119,2013-06-13 03:55:00,
2013-06-12 23:00:00,80.9,71.8,29.95,SE,145,1.0,2.0,74,0.00,,,0.00,WeatherCatV1.13B119,2013-06-13 04:00:00,
2013-06-12 23:01:00,80.9,71.8,29.95,ESE,104,1.0,2.0,74,0.00,,,0.00,WeatherCatV1.13B119,2013-06-13 04:01:00,
2013-06-12 23:06:00,80.9,71.8,29.95,SE,143,1.0,2.0,74,0.00,,,0.00,WeatherCatV1.13B119,2013-06-13 04:06:00,
2013-06-12 23:11:00,80.8,72.1,29.95,SSE,153,1.0,2.0,75,0.00,,,0.00,WeatherCatV1.13B119,2013-06-13 04:11:00,
2013-06-12 23:16:00,80.6,71.9,29.95,ESE,119,2.0,3.0,75,0.00,,,0.00,WeatherCatV1.13B119,2013-06-13 04:16:00,
2013-06-12 23:21:00,80.5,71.8,29.95,ESE,110,0.0,1.0,75,0.00,,,0.00,WeatherCatV1.13B119,2013-06-13 04:21:00,
2013-06-12 23:26:00,80.5,71.8,29.95,ESE,118,2.0,3.0,75,0.00,,,0.00,WeatherCatV1.13B119,2013-06-13 04:26:00,
2013-06-12 23:31:00,80.5,71.8,29.95,South,170,3.0,3.0,75,0.00,,,0.00,WeatherCatV1.13B119,2013-06-13 04:31:00,
2013-06-12 23:36:00,80.5,71.8,29.95,SE,144,2.0,3.0,75,0.00,,,0.00,WeatherCatV1.13B119,2013-06-13 04:36:00,
2013-06-12 23:41:00,80.5,71.8,29.95,SSE,147,3.0,4.0,75,0.00,,,0.00,WeatherCatV1.13B119,2013-06-13 04:41:00,
2013-06-12 23:46:00,80.4,71.7,29.95,SSE,165,1.0,5.0,75,0.00,,,0.00,WeatherCatV1.13B119,2013-06-13 04:46:00,
2013-06-12 23:51:00,80.3,71.6,29.95,SE,133,1.0,3.0,75,0.00,,,0.00,WeatherCatV1.13B119,2013-06-13 04:51:00,
2013-06-12 23:56:00,80.1,71.8,29.95,ESE,102,1.0,3.0,76,0.00,,,0.00,WeatherCatV1.13B119,2013-06-13 04:56:00,